Location: Unspecified
(0.0000°N, 0.0000°E)
Time: 06:29:23
(UTC+00:00)

Vanguard 1 - Pass Details

Date: 15 December 2023
Orbit: 649 x 3825 km, 34.2° (Epoch: 18 September)

Event Time Altitude Azimuth Distance (km) Brightness Sun altitude
Rises 00:54:25 0° 294° (WNW) 7,941 - -62.6°
Reaches altitude 10° 01:00:12 10° 290° (WNW) 6,929 - -61.8°
Maximum altitude 01:21:50 50° 220° (SW) 3,718 - -58.6°
Exits shadow 01:25:38 46° 191° (S) 3,614 12.7 -58.0°
Drops below altitude 10° 01:36:08 10° 147° (SSE) 4,730 13.9 -56.1°
Sets 01:39:17 0° 141° (SE) 5,371 14.4 -55.6°
